User: anonymous   Login
Location: Unspecified
(0.0000°N, 0.0000°E)
Time: 10:34:20
(UTC+00:00)
Language:

Cosmos 2341 - Orbit

View from above orbital plane
View from above orbital plane
View from above satellite
View from above satellite

Ground track
Ground track

The orbit data is extracted from the following two-line orbital elements,

1 24772U 97017A   18173.94345737 +.00000023 +00000-0 +84051-5 0  9996
2 24772 082.9225 118.4596 0026915 065.8918 356.8873 13.71402857259460
Epoch (UTC): 22 June 2018 22:38:34
Eccentricity: 0.0026915
inclination: 82.9225°
perigee height: 974 km
apogee height: 1014 km
right ascension of ascending node: 118.4596°
argument of perigee: 65.8918°
revolutions per day: 13.71402857
mean anomaly at epoch: 356.8873°
orbit number at epoch: 25946

The dashed part of the orbit path shows where the satellite is in the earth's shadow,  

DLR